[[{"header":{"parameterUnit":"m.s-1","parameterCategory":1,"la1":30.2991,"la2":30.254,"lo1":-89.0895,"lo2":-89.0444,"dy":0.0017,"dx":0.0017,"nx":28,"ny":28,"refTime":"2024-07-22T09:00:00:Z","depth":0,"parameterNumber":2,"parameterNumberName":"U-component_of_WINDS"},"data":[0,0,0,0,0,0,0,0,0,0,0,0,0,0,0,0,0,0,0,0,0,0,0,0,0,0,0,0,0,0,0,0,0,0,0,0,0,0,0,0,0,0,0,0,0,0,0,0,0,0,0,0,0,0,0,0,0,0,2.6218,2.6221,0,2.6457,2.646,2.6462,2.6534,2.6533,2.6532,2.653,2.678,2.6787,2.6795,0,0,0,0,0,0,0,0,0,0,0,0,0,2.5827,2.5834,2.6218,2.6221,2.6224,2.6456,2.646,2.6463,2.6534,2.6533,2.6531,2.653,2.6777,2.6787,2.6796,0,0,0,0,0,0,0,0,0,0,0,0,0,2.6025,2.5836,2.6217,2.6287,2.6296,2.6456,2.646,2.6464,2.6535,2.6533,2.6531,2.6529,2.6774,2.6786,2.6797,2.6906,0,0,2.6833,2.6838,0,0,0,0,0,0,0,0,2.6013,2.6039,2.6274,2.6283,2.6293,2.6464,2.6414,2.6612,2.6535,2.6444,2.653,2.6528,2.6677,2.6696,2.6745,2.6918,2.6929,2.6834,2.6841,2.6846,2.6849,0,0,0,0,0,0,0,2.6,2.6029,2.6313,2.6277,2.6289,2.6308,2.6334,2.6452,2.6568,2.6452,2.6458,2.6485,2.6681,2.6734,2.6752,2.6932,2.6834,2.6844,2.6851,2.6856,2.7206,2.7209,0,0,0,0,0,0,2.5973,2.6017,2.6305,2.632,2.6145,2.6317,2.6346,2.6411,2.6567,2.6589,2.6486,2.6487,2.6715,2.6738,2.6761,2.6898,2.6846,2.6857,2.6864,2.7204,2.7207,2.7209,0,0,0,0,0,0,2.5965,2.5998,2.6295,2.617,2.6209,2.6325,2.6398,2.6416,2.6469,2.6593,2.6614,2.6518,2.6714,2.6744,2.6869,2.6907,2.6862,2.6873,2.7201,2.7205,2.7208,2.7173,0,0,0,0,0,0,2.5953,2.5995,2.6036,2.617,2.6216,2.6398,2.64,2.6422,2.6488,2.6492,2.6628,2.6649,2.6715,2.6851,2.6881,2.6923,2.6882,2.7198,2.7203,2.7207,2.7171,2.7175,2.7178,0,0,0,0,0,2.5939,2.6018,2.6038,2.6072,2.627,2.64,2.6426,2.6499,2.6491,2.6534,2.6614,2.6645,2.6899,2.6863,2.6897,2.6943,2.7196,2.7202,2.7207,2.717,2.7174,2.7178,0,0,0,0,0,0,2.5887,2.6037,2.6061,2.6185,2.6279,2.6412,2.6469,2.6502,2.6601,2.6601,2.6689,2.6719,2.6837,2.6904,2.6861,2.7057,2.7049,2.7061,2.7009,2.7014,2.7018,2.6999,2.6892,0,0,0,0,0,2.589,2.5982,2.6109,2.6206,2.6252,2.6352,2.6412,2.646,2.6561,2.6602,2.6691,2.6789,2.6891,2.6957,2.7058,2.7182,2.7212,2.723,2.7233,2.7236,2.7245,2.7315,2.7324,2.7226,2.7226,2.7226,0,0,2.5897,2.599,2.6043,2.6198,2.6277,2.6371,2.6385,2.6485,2.6556,2.6618,2.674,2.6809,2.6925,2.7049,2.7109,2.7108,2.7279,2.7242,2.7243,2.7251,2.7321,2.733,2.7338,2.723,2.7229,2.7229,0,0,2.5958,2.6038,2.6128,2.6206,2.6324,2.639,2.6411,2.6539,2.6586,2.6711,2.6759,2.6846,2.702,2.71,2.7164,2.7255,2.7287,2.7286,2.7303,2.737,2.7377,2.7385,2.7416,2.7427,2.7295,2.7295,2.7294,0,2.5952,2.6095,2.617,2.6267,2.6333,2.6392,2.6484,2.6557,2.6702,2.6748,2.6745,2.6964,2.7046,2.719,2.7212,2.7262,2.7289,2.727,2.737,2.7378,2.7386,2.7417,2.7429,2.7293,2.7294,2.7294,2.7294,0,2.6082,2.618,2.6239,2.6375,2.6449,2.6543,2.6633,2.6699,2.6741,2.6807,2.6933,2.7034,2.7156,2.7194,2.7237,2.7344,2.734,2.7352,2.7346,2.7393,2.7423,2.7436,2.7292,2.7292,2.7293,2.7293,0,0,2.6116,2.6293,2.6313,2.6375,2.651,2.6588,2.6685,2.6802,2.6857,2.6956,2.7039,2.7185,2.7197,2.7269,2.7322,2.7381,2.7445,2.7386,2.739,2.7393,2.7569,2.7558,2.757,2.7468,2.747,2.7472,2.7559,0,2.6193,2.6366,2.6437,2.6577,2.6669,2.6727,2.6811,2.6903,2.6968,2.7057,2.713,2.7231,2.724,2.7283,2.7345,2.7424,2.7482,2.7419,2.7547,2.755,2.7514,2.7587,2.7575,2.7652,2.7572,2.7574,2.7575,0,2.6306,2.6403,2.6552,2.6675,2.6716,2.679,2.6903,2.6987,2.7093,2.7137,2.7217,2.7266,2.7371,2.7358,2.7504,2.7459,2.7516,2.7563,2.7568,2.7582,2.7564,2.7601,2.7678,2.7689,2.7595,2.7594,2.7592,0,2.6314,2.6483,2.6594,2.6646,2.6792,2.6843,2.6906,2.7011,2.7077,2.7176,2.722,2.7331,2.7392,2.7478,2.7556,2.7539,2.7694,2.7688,2.7733,2.7731,2.7762,2.7759,2.7848,2.7801,2.7801,2.78,2.78,0,2.6392,2.648,2.6599,2.6667,2.6768,2.6849,2.6948,2.7016,2.7108,2.7191,2.7249,2.7326,2.7425,2.7516,2.7578,2.7689,2.7716,2.7754,2.777,2.7749,2.7743,2.7786,2.7782,2.7804,2.7803,2.7802,2.7802,0,2.6417,2.65,2.6625,2.6753,2.6787,2.6856,2.6966,2.7035,2.7103,2.7207,2.7237,2.7343,2.7452,2.7539,2.7682,2.7724,2.784,2.7858,2.7803,2.7811,2.7851,2.7845,2.797,2.799,2.7929,2.793,2.793,0,2.6461,2.653,2.6665,2.6724,2.6786,2.6881,2.6948,2.7031,2.7099,2.7225,2.7279,2.7391,2.7486,2.7657,2.7749,2.7858,2.7878,2.7914,2.7895,2.7872,2.7878,2.7872,2.7879,2.7916,2.7916,2.7916,2.7917,0,2.6529,2.6566,2.666,2.6768,2.6846,2.6935,2.7027,2.7072,2.7172,2.7245,2.7356,2.7429,2.7574,2.7686,2.7805,2.7872,2.7911,2.7922,2.7938,2.7917,2.7881,2.79,2.7808,2.7919,2.7918,2.7918,2.7918,2.7918,2.6564,2.6628,2.6732,2.6835,2.6912,2.6995,2.7066,2.7142,2.7235,2.7358,2.7403,2.7516,2.7622,2.7785,2.7853,2.7945,2.7948,2.7971,2.7977,2.7981,2.7978,2.7868,2.7967,2.7967,2.7967,2.7967,2.7967,0,2.6634,2.6704,2.6797,2.6922,2.7002,2.7031,2.7133,2.7199,2.7298,2.7392,2.7483,2.7611,2.7719,2.7818,2.7932,2.7986,2.8006,2.8012,2.8009,2.8024,2.797,2.7944,2.7994,2.7994,2.7994,2.7994,2.7994,2.7994,2.668,2.6789,2.6839,2.6987,2.7057,2.7168,2.7223,2.7301,2.7376,2.7515,2.7605,2.7668,2.7765,2.7886,2.7986,2.8013,2.8052,2.8053,2.8084,2.8031,2.8028,2.8024,2.8,2.8061,2.8061,2.813,2.8131,2.8131]},{"header":{"parameterUnit":"m.s-1","parameterCategory":1,"la1":30.2991,"la2":30.254,"lo1":-89.0895,"lo2":-89.0444,"dy":0.0017,"dx":0.0017,"nx":28,"ny":28,"refTime":"2024-07-22T09:00:00:Z","depth":0,"parameterNumber":3,"parameterNumberName":"V-component_of_WINDS"},"data":[0,0,0,0,0,0,0,0,0,0,0,0,0,0,0,0,0,0,0,0,0,0,0,0,0,0,0,0,0,0,0,0,0,0,0,0,0,0,0,0,0,0,0,0,0,0,0,0,0,0,0,0,0,0,0,0,0,0,1.9998,1.9998,0,1.9959,1.9959,1.9958,1.9975,1.9976,1.9977,1.9977,1.9932,1.993,1.9928,0,0,0,0,0,0,0,0,0,0,0,0,0,2.0081,2.008,1.9998,1.9998,1.9997,1.9959,1.9959,1.9958,1.9975,1.9976,1.9977,1.9978,1.9933,1.993,1.9928,0,0,0,0,0,0,0,0,0,0,0,0,0,2.0044,2.0079,1.9999,2.0001,2.0001,1.9959,1.9959,1.9958,1.9974,1.9976,1.9977,1.9978,1.9934,1.9931,1.9928,1.9879,0,0,1.9918,1.9917,0,0,0,0,0,0,0,0,2.0046,2.0041,2.0001,2.0001,2.0001,1.9973,1.9971,1.9931,1.9974,1.9984,1.9978,1.9979,1.9944,1.994,1.993,1.9877,1.9875,1.9918,1.9916,1.9914,1.9913,0,0,0,0,0,0,0,2.0049,2.0043,1.9983,2.0001,2.0,2.0002,1.9998,1.9964,1.9957,1.9983,1.9985,1.998,1.9944,1.9933,1.9929,1.9875,1.9918,1.9915,1.9913,1.9912,1.9776,1.9774,0,0,0,0,0,0,2.0052,2.0045,1.9984,1.9982,2.0028,2.0,1.9995,1.9981,1.9957,1.9955,1.9979,1.9981,1.9937,1.9932,1.9927,1.9866,1.9914,1.9911,1.991,1.9777,1.9775,1.9773,0,0,0,0,0,0,2.0054,2.0046,1.9986,2.0013,2.0006,1.9997,1.998,1.9979,1.9967,1.9954,1.9952,1.9968,1.9938,1.9932,1.989,1.9864,1.991,1.9907,1.9779,1.9777,1.9774,1.9744,0,0,0,0,0,0,2.0056,2.0047,2.003,2.0013,2.0004,1.9951,1.9978,1.9977,1.9962,1.9965,1.9943,1.9941,1.9939,1.9895,1.9887,1.9861,1.9905,1.9782,1.9778,1.9775,1.9748,1.9741,1.9736,0,0,0,0,0,2.0059,2.0023,2.0029,2.0022,1.9983,1.995,1.9945,1.9944,1.9961,1.9942,1.9933,1.9942,1.9869,1.9891,1.9882,1.9854,1.9783,1.9779,1.9775,1.975,1.9742,1.9736,0,0,0,0,0,0,2.0036,2.0021,2.0028,1.9986,1.9969,1.9953,1.993,1.9937,1.9914,1.9917,1.9916,1.9911,1.9867,1.9857,1.9881,1.9804,1.9828,1.9822,1.9812,1.9804,1.9799,1.98,1.9902,0,0,0,0,0,2.0027,2.0003,1.999,1.9954,1.9946,1.9939,1.9924,1.9926,1.9908,1.99,1.9888,1.9868,1.9841,1.9823,1.9797,1.9747,1.974,1.9724,1.9718,1.9713,1.9707,1.9675,1.9666,1.9761,1.9761,1.9761,0,0,2.0006,1.9995,1.998,1.9949,1.9936,1.9909,1.9933,1.9904,1.9882,1.9895,1.9855,1.9845,1.9823,1.9776,1.9755,1.9766,1.9679,1.9708,1.9704,1.97,1.967,1.9661,1.9653,1.9758,1.9758,1.9759,0,0,1.9954,1.9945,1.9912,1.9898,1.9879,1.9875,1.9867,1.9849,1.9843,1.9803,1.9811,1.9785,1.9739,1.9721,1.9707,1.9645,1.9651,1.9637,1.9604,1.9574,1.9566,1.9559,1.9533,1.9525,1.9632,1.9632,1.9632,0,1.993,1.9891,1.9894,1.9863,1.9847,1.9859,1.9824,1.9811,1.9783,1.9771,1.9785,1.9725,1.9711,1.9658,1.9643,1.9632,1.962,1.9638,1.9568,1.9561,1.9554,1.953,1.952,1.963,1.963,1.963,1.963,0,1.986,1.9832,1.9808,1.9782,1.9764,1.9731,1.9727,1.9708,1.971,1.9703,1.966,1.9644,1.9614,1.9602,1.9604,1.9548,1.9555,1.9569,1.9592,1.9543,1.952,1.9511,1.9627,1.9628,1.9628,1.9629,0,0,1.9791,1.9767,1.9757,1.9744,1.9723,1.97,1.9666,1.9638,1.962,1.96,1.9569,1.9529,1.954,1.9523,1.9523,1.9497,1.9444,1.9513,1.9512,1.9497,1.9376,1.9364,1.9353,1.9449,1.9447,1.9446,1.9377,0,1.9734,1.9677,1.9678,1.9623,1.9595,1.9606,1.9576,1.9558,1.955,1.9523,1.9515,1.9484,1.9504,1.9493,1.9468,1.9456,1.9419,1.9461,1.9416,1.9415,1.9418,1.9341,1.9329,1.9264,1.9368,1.9367,1.9365,0,1.966,1.9638,1.9581,1.9561,1.9549,1.9523,1.9494,1.947,1.9449,1.9445,1.9425,1.9429,1.9391,1.9418,1.9363,1.9392,1.9374,1.9365,1.9362,1.9355,1.9385,1.9328,1.9244,1.9233,1.9352,1.9353,1.9354,0,1.961,1.9567,1.9526,1.9515,1.9492,1.9472,1.9461,1.9442,1.9423,1.9398,1.9385,1.9356,1.9339,1.9315,1.9309,1.933,1.9252,1.928,1.9245,1.9244,1.9225,1.9226,1.9133,1.922,1.922,1.922,1.9221,0,1.9544,1.9508,1.9503,1.9478,1.9436,1.9437,1.9394,1.9385,1.9367,1.9337,1.9345,1.9316,1.9312,1.9282,1.9277,1.923,1.9223,1.9216,1.9214,1.9213,1.9213,1.9198,1.9201,1.9218,1.9218,1.9219,1.9219,0,1.9481,1.9477,1.9432,1.9414,1.9409,1.9378,1.9361,1.9335,1.9328,1.929,1.9281,1.927,1.9234,1.9227,1.9185,1.9181,1.9124,1.9129,1.9131,1.913,1.9093,1.9095,1.8984,1.8968,1.907,1.9069,1.9068,0,1.9437,1.9409,1.9388,1.9369,1.9358,1.9328,1.9309,1.9308,1.9287,1.926,1.9236,1.9201,1.9173,1.9115,1.9101,1.9068,1.9069,1.9033,1.9064,1.9062,1.9063,1.9063,1.9058,1.9025,1.9024,1.9023,1.9023,0,1.9359,1.9358,1.9331,1.9303,1.9281,1.9258,1.9237,1.922,1.9216,1.9192,1.9156,1.9134,1.9091,1.9055,1.9021,1.9007,1.9012,1.9014,1.9003,1.8999,1.9,1.8994,1.911,1.9015,1.9016,1.9016,1.9017,1.9017,1.9301,1.9275,1.9255,1.9225,1.9209,1.9188,1.9161,1.9151,1.9122,1.9087,1.9088,1.9048,1.9024,1.8979,1.8963,1.8929,1.894,1.8925,1.8921,1.8916,1.891,1.9009,1.8923,1.8923,1.8923,1.8924,1.8924,0,1.9219,1.9207,1.9179,1.9148,1.9123,1.9134,1.911,1.9087,1.9052,1.903,1.9002,1.8959,1.8923,1.8907,1.8871,1.8846,1.8847,1.8836,1.8836,1.8832,1.8905,1.8916,1.8836,1.8836,1.8836,1.8836,1.8836,1.8836,1.9173,1.9129,1.9125,1.9072,1.9059,1.9021,1.9005,1.8985,1.8967,1.8919,1.889,1.888,1.8859,1.8821,1.8787,1.8783,1.8767,1.8754,1.875,1.8818,1.8827,1.8836,1.8846,1.8752,1.8752,1.8679,1.8679,1.8678]}]]